[[{"header":{"parameterUnit":"m.s-1","parameterCategory":1,"la1":30.2991,"la2":30.254,"lo1":-89.0895,"lo2":-89.0444,"dx":0.0017,"dy":0.0017,"nx":28,"ny":28,"refTime":"2022-11-15T09:00:00:Z","depth":0,"parameterNumber":2,"parameterNumberName":"U-component_of_WINDS"},"data":[0,0,0,0,0,0,0,0,0,0,0,0,0,0,0,0,0,0,0,0,0,0,0,0,0,0,0,0,0,0,0,0,0,0,0,0,0,0,0,0,0,0,0,0,0,0,0,0,0,0,0,0,0,0,0,0,0,0,2.0018,2.0018,0,2.005,2.0051,2.0051,2.0045,2.0045,2.0044,2.0044,2.0076,2.0077,2.0078,0,0,0,0,0,0,0,0,0,0,0,0,0,1.995,1.9952,2.0018,2.0018,2.0019,2.005,2.0051,2.0051,2.0045,2.0045,2.0044,2.0043,2.0075,2.0077,2.0078,0,0,0,0,0,0,0,0,0,0,0,0,0,1.9981,1.9952,2.0018,2.002,2.002,2.005,2.0051,2.0051,2.0046,2.0045,2.0044,2.0043,2.0075,2.0077,2.0079,2.0109,0,0,2.0085,2.0086,0,0,0,0,0,0,0,0,1.9979,1.9983,2.0019,2.0019,2.002,2.0043,2.0039,2.007,2.0046,2.0036,2.0044,2.0043,2.0065,2.0068,2.0076,2.011,2.0111,2.0085,2.0086,2.0087,2.0088,0,0,0,0,0,0,0,1.9977,1.9982,2.0031,2.0019,2.002,2.0019,2.0022,2.0045,2.0055,2.0037,2.0036,2.004,2.0065,2.0074,2.0077,2.0112,2.0085,2.0087,2.0088,2.0089,2.0173,2.0174,0,0,0,0,0,0,1.9974,1.998,2.003,2.0032,1.9997,2.0021,2.0024,2.0036,2.0055,2.0057,2.0041,2.004,2.0071,2.0074,2.0078,2.0115,2.0087,2.0089,2.009,2.0172,2.0174,2.0175,0,0,0,0,0,0,1.9973,1.9979,2.0028,2.0006,2.0012,2.0023,2.0036,2.0038,2.0046,2.0058,2.006,2.0048,2.007,2.0075,2.0101,2.0116,2.009,2.0092,2.0171,2.0173,2.0174,2.0188,0,0,0,0,0,0,1.9971,1.9978,1.999,2.0006,2.0013,2.0051,2.0037,2.0039,2.005,2.0049,2.0065,2.0067,2.007,2.0098,2.0103,2.0118,2.0094,2.017,2.0172,2.0174,2.0186,2.019,2.0193,0,0,0,0,0,1.9969,1.9992,1.999,1.9996,2.0028,2.0052,2.0056,2.006,2.0051,2.0063,2.0071,2.0066,2.0114,2.0101,2.0107,2.0122,2.0169,2.0171,2.0174,2.0185,2.0189,2.0193,0,0,0,0,0,0,1.9976,1.9994,1.9993,2.0022,2.0036,2.0051,2.0066,2.0064,2.008,2.0078,2.0082,2.0086,2.0113,2.012,2.0106,2.0153,2.014,2.0144,2.0147,2.0151,2.0154,2.0151,2.0095,0,0,0,0,0,1.9981,2.0,2.0014,2.0039,2.0046,2.0055,2.0065,2.0067,2.0081,2.0087,2.0097,2.0111,2.0129,2.014,2.0157,2.0188,2.0192,2.0201,2.0205,2.0207,2.021,2.0228,2.0232,2.0182,2.0182,2.0182,0,0,1.9991,2.0004,2.0015,2.004,2.0051,2.007,2.0059,2.008,2.0094,2.009,2.0116,2.0124,2.0139,2.0168,2.0181,2.0175,2.0225,2.021,2.0212,2.0214,2.023,2.0235,2.0239,2.0184,2.0183,2.0183,0,0,2.002,2.0031,2.0053,2.0065,2.0082,2.0088,2.0093,2.011,2.0115,2.0141,2.0139,2.0156,2.0187,2.0198,2.0208,2.0244,2.024,2.0249,2.0266,2.0283,2.0287,2.029,2.0303,2.0308,2.0252,2.0252,2.0252,0,2.0031,2.006,2.0064,2.0086,2.0097,2.0096,2.0118,2.0129,2.015,2.0158,2.0152,2.0191,2.0202,2.0234,2.0242,2.025,2.0257,2.0247,2.0286,2.0289,2.0293,2.0305,2.031,2.0253,2.0253,2.0253,2.0253,0,2.0072,2.0092,2.0108,2.013,2.0143,2.0165,2.0173,2.0186,2.0187,2.0194,2.0222,2.0234,2.0255,2.0262,2.0263,2.0295,2.0291,2.0285,2.0272,2.0298,2.031,2.0315,2.0254,2.0254,2.0254,2.0253,0,0,2.0105,2.013,2.0136,2.0146,2.0166,2.0182,2.0204,2.0224,2.0236,2.0251,2.027,2.0297,2.0292,2.0303,2.0306,2.0321,2.0349,2.0313,2.0314,2.032,2.0385,2.0389,2.0394,2.0347,2.0348,2.0349,2.0384,0,2.0135,2.0174,2.018,2.0214,2.0234,2.0233,2.0253,2.0267,2.0274,2.0292,2.03,2.0319,2.0311,2.0318,2.0333,2.0342,2.0362,2.034,2.0365,2.0365,2.036,2.04,2.0404,2.0436,2.0388,2.0389,2.039,0,2.0176,2.0193,2.023,2.0248,2.0256,2.0274,2.0294,2.031,2.0327,2.0331,2.0345,2.0346,2.0369,2.0356,2.0389,2.0373,2.0384,2.039,2.0392,2.0394,2.0379,2.0403,2.0447,2.0451,2.0397,2.0396,2.0396,0,2.0196,2.0229,2.0255,2.0264,2.0286,2.0298,2.0308,2.0324,2.0336,2.0354,2.0362,2.0382,2.0393,2.0408,2.0415,2.0405,2.0447,2.0434,2.0451,2.0451,2.0459,2.0459,2.0505,2.0467,2.0467,2.0467,2.0467,0,2.0229,2.0251,2.0265,2.0281,2.0306,2.0313,2.0338,2.0347,2.0362,2.038,2.0381,2.0398,2.0406,2.0425,2.043,2.0456,2.0461,2.0466,2.0467,2.0465,2.0465,2.0472,2.0469,2.0468,2.0468,2.0468,2.0468,0,2.0255,2.0265,2.0294,2.0313,2.0319,2.0336,2.0353,2.0369,2.0377,2.04,2.0406,2.0418,2.044,2.0449,2.0475,2.0479,2.0509,2.0509,2.0504,2.0504,2.0521,2.0519,2.0572,2.058,2.0538,2.0538,2.0538,0,2.0275,2.0293,2.0314,2.0327,2.0337,2.0357,2.0371,2.0379,2.0392,2.0413,2.0427,2.0449,2.0467,2.0502,2.0513,2.0534,2.0534,2.0552,2.0537,2.0535,2.0534,2.0533,2.0535,2.0554,2.0554,2.0555,2.0555,0,2.031,2.0315,2.0334,2.0355,2.0371,2.0388,2.0405,2.0415,2.0425,2.0441,2.0464,2.0478,2.0506,2.0528,2.0549,2.0559,2.0559,2.056,2.0565,2.0563,2.0559,2.0562,2.0511,2.0558,2.0558,2.0557,2.0557,2.0557,2.0334,2.035,2.0368,2.039,2.0403,2.0419,2.0435,2.0446,2.0465,2.0489,2.0493,2.0517,2.0535,2.0564,2.0575,2.0595,2.059,2.0597,2.0599,2.0601,2.0602,2.0557,2.0599,2.0599,2.0599,2.0598,2.0598,0,2.0369,2.0381,2.0401,2.0425,2.0442,2.0441,2.046,2.0474,2.0496,2.0513,2.0531,2.0558,2.058,2.0594,2.0616,2.0629,2.0629,2.0634,2.0633,2.0636,2.0605,2.0598,2.0634,2.0634,2.0634,2.0634,2.0634,2.0634,2.0389,2.0416,2.0423,2.0457,2.0469,2.0494,2.0505,2.052,2.0533,2.0563,2.0581,2.0591,2.0607,2.063,2.0651,2.0654,2.0662,2.0668,2.0671,2.0641,2.0638,2.0634,2.0628,2.0669,2.0669,2.07,2.0701,2.0701]},{"header":{"parameterUnit":"m.s-1","parameterCategory":1,"la1":30.2991,"la2":30.254,"lo1":-89.0895,"lo2":-89.0444,"dx":0.0017,"dy":0.0017,"nx":28,"ny":28,"refTime":"2022-11-15T09:00:00:Z","depth":0,"parameterNumber":3,"parameterNumberName":"V-component_of_WINDS"},"data":[0,0,0,0,0,0,0,0,0,0,0,0,0,0,0,0,0,0,0,0,0,0,0,0,0,0,0,0,0,0,0,0,0,0,0,0,0,0,0,0,0,0,0,0,0,0,0,0,0,0,0,0,0,0,0,0,0,0,-7.4937,-7.4938,0,-7.5075,-7.5076,-7.5078,-7.5031,-7.5028,-7.5025,-7.5023,-7.5158,-7.5164,-7.517,0,0,0,0,0,0,0,0,0,0,0,0,0,-7.4627,-7.4633,-7.4936,-7.4938,-7.494,-7.5075,-7.5076,-7.5078,-7.5032,-7.5028,-7.5025,-7.5021,-7.5156,-7.5163,-7.5171,0,0,0,0,0,0,0,0,0,0,0,0,0,-7.4763,-7.4635,-7.4936,-7.4933,-7.4934,-7.5074,-7.5077,-7.5079,-7.5033,-7.5028,-7.5024,-7.5019,-7.5153,-7.5162,-7.5172,-7.5321,0,0,-7.5201,-7.5205,0,0,0,0,0,0,0,0,-7.4755,-7.4774,-7.4932,-7.4934,-7.4935,-7.5031,-7.5017,-7.516,-7.5034,-7.4995,-7.5022,-7.5017,-7.5119,-7.5131,-7.5167,-7.5327,-7.5333,-7.5202,-7.5208,-7.5212,-7.5215,0,0,0,0,0,0,0,-7.4746,-7.4768,-7.4991,-7.4934,-7.4936,-7.4923,-7.4937,-7.5044,-7.508,-7.4998,-7.4995,-7.5013,-7.5119,-7.5158,-7.5169,-7.5335,-7.5202,-7.521,-7.5216,-7.522,-7.5625,-7.563,0,0,0,0,0,0,-7.4736,-7.476,-7.4987,-7.4995,-7.4832,-7.4932,-7.4948,-7.5005,-7.5079,-7.5086,-7.5016,-7.501,-7.5143,-7.5158,-7.5174,-7.5354,-7.5212,-7.5221,-7.5226,-7.562,-7.5626,-7.5632,0,0,0,0,0,0,-7.473,-7.4757,-7.4981,-7.4877,-7.4905,-7.4943,-7.5006,-7.501,-7.5049,-7.5093,-7.5098,-7.5049,-7.514,-7.5161,-7.5285,-7.5358,-7.5225,-7.5234,-7.5614,-7.5622,-7.5629,-7.5714,0,0,0,0,0,0,-7.4721,-7.4755,-7.4813,-7.4879,-7.491,-7.5092,-7.5011,-7.5016,-7.5066,-7.5059,-7.5125,-7.5132,-7.5138,-7.5271,-7.5295,-7.5369,-7.5241,-7.5608,-7.5618,-7.5627,-7.5705,-7.5724,-7.574,0,0,0,0,0,-7.471,-7.483,-7.4816,-7.4844,-7.4984,-7.5096,-7.5114,-7.5121,-7.5072,-7.513,-7.5159,-7.513,-7.5346,-7.5285,-7.5311,-7.5388,-7.5603,-7.5615,-7.5626,-7.5697,-7.572,-7.5739,0,0,0,0,0,0,-7.4769,-7.4839,-7.4824,-7.4969,-7.5028,-7.5088,-7.5162,-7.5145,-7.5216,-7.5206,-7.521,-7.5225,-7.5354,-7.5383,-7.5313,-7.5536,-7.5467,-7.5484,-7.5513,-7.5535,-7.5552,-7.5541,-7.5249,0,0,0,0,0,-7.48,-7.4887,-7.4942,-7.5064,-7.5095,-7.5124,-7.5172,-7.5173,-7.5233,-7.5256,-7.5294,-7.5351,-7.5432,-7.5485,-7.5561,-7.5709,-7.5723,-7.5775,-7.5793,-7.5807,-7.5821,-7.5901,-7.5925,-7.5669,-7.5669,-7.5668,0,0,-7.4862,-7.4911,-7.4965,-7.5078,-7.5123,-7.5211,-7.5144,-7.5241,-7.5306,-7.527,-7.5391,-7.5421,-7.5484,-7.5622,-7.5684,-7.565,-7.5895,-7.5821,-7.5832,-7.5839,-7.5915,-7.594,-7.5961,-7.5676,-7.5675,-7.5674,0,0,-7.5022,-7.5068,-7.5176,-7.5223,-7.5294,-7.5312,-7.5338,-7.5402,-7.5421,-7.5543,-7.5518,-7.5595,-7.5734,-7.5781,-7.5823,-7.6002,-7.5978,-7.6026,-7.6116,-7.6195,-7.6215,-7.6233,-7.6296,-7.6319,-7.6041,-7.6041,-7.6041,0,-7.5091,-7.5225,-7.5233,-7.5332,-7.5382,-7.5356,-7.5464,-7.5509,-7.56,-7.5634,-7.5596,-7.5771,-7.5812,-7.596,-7.6004,-7.6038,-7.6067,-7.6019,-7.6212,-7.623,-7.6246,-7.6307,-7.6331,-7.6046,-7.6046,-7.6045,-7.6045,0,-7.5306,-7.5399,-7.5478,-7.5569,-7.5627,-7.573,-7.5752,-7.581,-7.5806,-7.5828,-7.5952,-7.6001,-7.6087,-7.6122,-7.6118,-7.627,-7.6247,-7.621,-7.6141,-7.6276,-7.6333,-7.6356,-7.6054,-7.6052,-7.6051,-7.6049,0,0,-7.5506,-7.5602,-7.563,-7.5671,-7.5748,-7.5819,-7.592,-7.6007,-7.6057,-7.612,-7.6205,-7.6324,-7.6291,-7.6339,-7.6339,-7.6408,-7.6547,-7.6363,-7.6365,-7.6395,-7.6716,-7.6743,-7.677,-7.6531,-7.6536,-7.6539,-7.6711,0,-7.5672,-7.5853,-7.5863,-7.6026,-7.6112,-7.609,-7.6178,-7.6233,-7.6257,-7.6332,-7.6356,-7.6441,-7.6391,-7.642,-7.6487,-7.6516,-7.6611,-7.6503,-7.6608,-7.6612,-7.6593,-7.68,-7.6828,-7.6988,-7.6733,-7.6737,-7.674,0,-7.5889,-7.5963,-7.6135,-7.62,-7.6236,-7.6316,-7.6397,-7.6469,-7.6531,-7.6543,-7.6598,-7.6589,-7.6691,-7.6619,-7.6759,-7.6686,-7.6729,-7.6749,-7.6756,-7.6765,-7.6684,-7.6814,-7.7039,-7.7062,-7.6775,-7.6772,-7.6769,0,-7.6018,-7.6159,-7.6281,-7.6317,-7.6395,-7.6452,-7.6487,-7.6545,-7.6596,-7.6666,-7.67,-7.678,-7.6823,-7.6885,-7.6897,-7.6843,-7.7037,-7.6966,-7.7049,-7.7049,-7.709,-7.7087,-7.7324,-7.7119,-7.7119,-7.7118,-7.7118,0,-7.6202,-7.6308,-7.634,-7.6415,-7.6533,-7.6543,-7.6659,-7.669,-7.6742,-7.6821,-7.6805,-7.6879,-7.6891,-7.6968,-7.6978,-7.7092,-7.7112,-7.7123,-7.7125,-7.7125,-7.7123,-7.7153,-7.7142,-7.7125,-7.7123,-7.7122,-7.7121,0,-7.6364,-7.639,-7.6522,-7.6586,-7.6605,-7.6689,-7.6743,-7.6814,-7.6837,-7.6937,-7.6961,-7.6995,-7.7085,-7.7103,-7.7208,-7.7215,-7.7351,-7.7341,-7.7331,-7.733,-7.7412,-7.7404,-7.7675,-7.7711,-7.7483,-7.7485,-7.7487,0,-7.648,-7.6562,-7.6636,-7.6689,-7.6728,-7.6813,-7.6867,-7.6879,-7.6935,-7.7013,-7.7074,-7.7162,-7.7234,-7.7377,-7.741,-7.749,-7.7482,-7.7572,-7.7493,-7.7491,-7.7483,-7.7478,-7.7486,-7.7586,-7.7589,-7.7591,-7.7592,0,-7.6682,-7.6691,-7.677,-7.6855,-7.692,-7.6986,-7.7048,-7.7092,-7.7113,-7.7177,-7.7269,-7.7325,-7.7434,-7.7521,-7.7601,-7.7635,-7.7617,-7.7617,-7.764,-7.7641,-7.7631,-7.7637,-7.7371,-7.761,-7.7608,-7.7607,-7.7606,-7.7605,-7.6825,-7.6897,-7.6961,-7.7049,-7.7098,-7.7158,-7.7228,-7.726,-7.7338,-7.743,-7.7432,-7.7533,-7.7592,-7.7699,-7.7738,-7.7815,-7.7787,-7.7821,-7.7829,-7.7837,-7.7845,-7.762,-7.783,-7.7829,-7.7829,-7.7828,-7.7828,0,-7.7026,-7.7067,-7.7148,-7.7238,-7.7308,-7.7287,-7.7356,-7.7415,-7.7505,-7.7563,-7.7634,-7.774,-7.7825,-7.7865,-7.7949,-7.8003,-7.7997,-7.8024,-7.802,-7.8028,-7.7866,-7.7837,-7.8028,-7.8028,-7.8028,-7.8028,-7.8028,-7.8028,-7.7139,-7.726,-7.7276,-7.7421,-7.746,-7.7561,-7.7602,-7.7656,-7.7702,-7.7823,-7.7894,-7.7921,-7.7972,-7.8059,-7.8135,-7.8144,-7.8175,-7.8207,-7.8213,-7.806,-7.8039,-7.802,-7.7993,-7.8214,-7.8214,-7.8368,-7.837,-7.8371]}]]